DW9246 Weather Reports


Display with metric or nautical units.
time (UTC)temp
F
wind
direction
speed
MPH
gust
MPH
rain 1hr
in
rain 24hr
in
rain mn
in
humidity
%
barometer
mb
20260505002012 53 1 3.0 5.0 0.00 0.20 0.00 81 1012.5
20260505001014 53 1 2.0 4.0 0.00 0.20 0.00 82 1012.6
20260505000021 53 1 3.0 4.0 0.00 0.20 0.00 82 1012.6
20260504235013 53 1 3.0 4.0 0.00 0.20 0.20 82 1012.7
20260504234014 53 1 2.0 4.0 0.00 0.20 0.20 81 1012.7
20260504233013 53 1 3.0 5.0 0.00 0.20 0.20 80 1012.9
20260504232013 54 1 3.0 6.0 0.00 0.20 0.20 79 1012.8
20260504231014 54 1 1.0 3.0 0.00 0.20 0.20 79 1012.8
20260504225014 55 2 4.0 8.0 0.00 0.20 0.20 80 1012.8
20260504224012 54 3 4.0 10.0 0.00 0.20 0.20 81 1012.7
20260504222014 53 343 2.0 6.0 0.00 0.20 0.20 85 1012.8
20260504221013 52 335 4.0 8.0 0.00 0.20 0.20 86 1012.8
20260504220016 52 317 4.0 7.0 0.00 0.20 0.20 86 1012.9
20260504215013 52 329 5.0 8.0 0.00 0.20 0.20 86 1012.9
20260504214018 52 341 4.0 6.0 0.00 0.20 0.20 86 1013.0
20260504213012 52 337 2.0 5.0 0.00 0.20 0.20 86 1013.0
20260504212013 52 338 2.0 5.0 0.00 0.20 0.20 87 1013.0
20260504211012 52 338 3.0 5.0 0.00 0.20 0.20 87 1013.1
20260504210013 52 337 3.0 5.0 0.00 0.20 0.20 87 1013.1
20260504205013 53 347 4.0 6.0 0.00 0.20 0.20 87 1013.0
20260504203014 53 335 3.0 5.0 0.01 0.20 0.20 86 1012.9
20260504202015 54 327 4.0 5.0 0.01 0.20 0.20 86 1012.7
20260504201013 54 321 1.0 4.0 0.01 0.20 0.20 85 1012.8
20260504194015 56 31 0.0 3.0 0.02 0.20 0.20 84 1012.4
20260504192012 57 30 0.0 2.0 0.02 0.20 0.20 84 1012.4
20260504191012 57 18 3.0 8.0 0.06 0.20 0.20 85 1012.4
20260504190012 57 337 6.0 10.0 0.18 0.20 0.20 86 1012.5
20260504185012 57 324 8.0 13.0 0.18 0.20 0.20 87 1012.5
20260504184012 57 283 4.0 7.0 0.17 0.19 0.19 86 1012.3
20260504181013 58 313 7.0 15.0 0.13 0.14 0.14 81 1012.2
20260504180013 60 260 8.0 18.0 0.00 0.02 0.02 80 1012.5
20260504175012 61 245 5.0 10.0 0.00 0.02 0.02 83 1012.2
20260504174011 61 237 4.0 8.0 0.00 0.02 0.02 82 1012.0
20260504173013 62 214 3.0 6.0 0.00 0.02 0.02 82 1011.7
20260504172012 62 230 4.0 8.0 0.00 0.02 0.02 81 1011.6
20260504171012 62 237 3.0 8.0 0.00 0.02 0.02 82 1011.6
20260504151011 61 209 5.0 9.0 0.00 0.02 0.02 82 1011.7
20260504141013 62 177 3.0 7.0 0.01 0.02 0.02 82 1012.1
20260504081010 63 120 3.0 7.0 0.00 0.02 0.00 77 1013.4
20260504045012 56 339 2.0 4.0 0.00 0.02 0.00 85 1013.3
20260504044012 56 338 2.0 4.0 0.00 0.02 0.00 85 1013.4
20260504043011 56 338 2.0 3.0 0.00 0.02 0.00 85 1013.6
20260504041011 57 338 1.0 2.0 0.00 0.02 0.00 85 1013.5
20260504040016 57 338 0.0 2.0 0.00 0.02 0.00 85 1013.5
20260504035012 57 338 1.0 3.0 0.00 0.02 0.00 85 1013.8
20260504034010 57 338 1.0 3.0 0.00 0.02 0.00 85 1013.8
20260504032012 56 338 2.0 4.0 0.00 0.02 0.00 85 1014.0
20260504031011 56 338 2.0 4.0 0.00 0.02 0.00 85 1014.1
20260504030011 56 338 2.0 4.0 0.00 0.02 0.00 85 1013.9
20260504025015 56 338 2.0 5.0 0.00 0.02 0.00 85 1014.0
20260504024010 56 339 2.0 5.0 0.00 0.02 0.00 85 1014.0
20260504023010 56 337 3.0 5.0 0.00 0.02 0.00 85 1013.9
20260504022011 56 334 4.0 7.0 0.00 0.02 0.00 85 1013.9
20260504021011 56 354 2.0 5.0 0.00 0.02 0.00 85 1013.9
20260504020013 56 355 2.0 4.0 0.00 0.02 0.00 84 1013.8
20260504015011 56 356 2.0 4.0 0.00 0.02 0.00 84 1013.8
20260504013011 56 356 2.0 3.0 0.00 0.02 0.00 85 1014.1
20260504012014 56 355 2.0 3.0 0.00 0.02 0.00 84 1014.4
20260504010012 56 355 2.0 3.0 0.00 0.02 0.00 84 1014.4
20260504005012 56 356 2.0 3.0 0.00 0.02 0.00 84 1014.4
20260504004011 56 354 3.0 4.0 0.00 0.02 0.00 84 1014.5